Content
SEND FEEDBACK

Daily
Averages
Monthly
Summary
United States of America

CURRYVILLE, GEORGIA


Home > North America > United States > Georgia
Elevation: 65 feet     Latitude: 34 27N     Longitude: 085 07W

WEATHER
 
SELECT A DAY
Number of Records: 215,830;   Date Range: 1/1/95 - 12/17/14
 
SHARE

PRINT THIS DATA

[ ← Previous Day ]
WEATHER ALMANAC - AUGUST 18, 2014
[ Next Day → ]
[ °C ]   °F
Weather ElementAverageHighLow
Temperature75 °F89.1 °F (7:53 pm)69.8 °F (11:53 pm)
Dewpoint70.5 °F72 °F (12:03 pm)69.1 °F (10:53 pm)
Humidity86.8 %100 % (4:53 pm)55 % (2:53 pm)
Barometer29.92 in30.02 in (12:53 am)29.85 in (3:53 pm)
Wind Speed3.7 mph17.3 mph (4:53 pm)
Wind Gust23 mph (4:53 pm)
Weather ElementAverage
Visibility9.1 mi
Wind DirectionESE (117.5 °)

Weather ElementTotal
Precipitation0.01 in
Cooling Degree Days14.5 (Base 65)
Growing Degree Days29.5 (Base 50)
Averaged from 32 records on August 18, 2014
WEATHER CONDITIONS BREAKOUT
WIND DIRECTION BREAKOUT
WEATHER BY HOUR - AUGUST 18, 2014
[ °C ]   °F
Local TimeTemperatureDewpointHumidityBarometerVisibilityWind DirectionWind SpeedGust SpeedPrecipitationEventsConditions
12:53 AM72.0 °F70.0 °F93 %29.94 in9.0 miCalmClear
1:53 AM72.0 °F70.0 °F93 %29.93 in9.0 miCalmClear
2:53 AM71.1 °F69.1 °F93 %29.92 in8.0 miCalmClear
3:53 AM71.1 °F70.0 °F96 %29.92 in8.0 miSouth (190°)3.5 mphPartly Cloudy
4:53 AM72.0 °F70.0 °F93 %29.92 in10.0 miCalmMostly Cloudy
5:53 AM72.0 °F71.1 °F97 %29.91 in8.0 miSouth (190°)3.5 mph0.00 inMostly Cloudy
6:53 AM72.0 °F71.1 °F97 %29.92 in7.0 miCalmMostly Cloudy
7:53 AM73.0 °F72.0 °F96 %29.94 in5.0 miSSW (200°)3.5 mphPartly Cloudy
8:08 AM73.0 °F72.0 °F96 %29.97 in6.0 miWSW (250°)4.6 mphPartly Cloudy
8:28 AM75.0 °F72.0 °F90 %29.99 in9.0 miWest (280°)4.6 mphMostly Cloudy
8:41 AM75.0 °F72.0 °F90 %29.99 in9.0 miNNW (330°)3.5 mphOvercast
8:53 AM73.9 °F72.0 °F93 %29.96 in9.0 miCalmOvercast
8:59 AM73.9 °F72.0 °F93 %29.99 in9.0 miNE (40°)3.5 mphOvercast
9:53 AM75.0 °F71.1 °F87 %29.99 in10.0 miNNE (20°)6.9 mphMostly Cloudy
10:00 AM75.0 °F71.1 °F87 %30.02 in10.0 miNNE (20°)4.6 mphScattered Clouds
10:53 AM75.9 °F70.0 °F82 %29.99 in10.0 miVariable3.5 mphMostly Cloudy
11:53 AM80.1 °F69.1 °F69 %29.96 in10.0 miCalmClear
12:53 PM82.9 °F71.1 °F67 %29.92 in10.0 miSSW (200°)6.9 mphClear
1:53 PM84.9 °F72.0 °F65 %29.89 in10.0 miVariable6.9 mphClear
2:53 PM89.1 °F71.1 °F55 %29.86 in10.0 miSW (220°)10.4 mphScattered Clouds
3:53 PM87.1 °F70.0 °F57 %29.85 in10.0 miWest (260°)8.1 mphPartly Cloudy
4:53 PM82.9 °F69.1 °F63 %29.86 in10.0 miWNW (300°)17.3 mph23.0 mphMostly Cloudy
5:53 PM73.9 °F69.1 °F85 %29.88 in7.0 miSW (230°)8.1 mph0.01 inRainLight Rain
6:11 PM73.0 °F70.0 °F90 %29.91 in10.0 miSSW (210°)3.5 mph0.00 inRain-ThunderstormLight Rain
6:22 PM73.0 °F70.0 °F90 %29.91 in10.0 miCalm0.00 inRain-ThunderstormLight Thunderstorms and Rain
6:46 PM73.0 °F70.0 °F90 %29.90 in10.0 miWSW (250°)3.5 mph0.00 inOvercast
6:53 PM73.0 °F71.1 °F93 %29.88 in10.0 miCalm0.00 inOvercast
7:53 PM73.0 °F70.0 °F90 %29.86 in10.0 miSSE (160°)4.6 mphClear
8:53 PM72.0 °F70.0 °F93 %29.87 in10.0 miSSW (210°)3.5 mph0.00 inClear
9:53 PM71.1 °F70.0 °F96 %29.88 in10.0 miSSW (200°)3.5 mphClear
10:53 PM70.0 °F69.1 °F97 %29.89 in10.0 miCalmPartly Cloudy
11:53 PM69.8 °F69.8 °F100 %29.90 in9.0 miCalmClear
Hourly data recorded from KRMG, located miles away from Curryville, Georgia







STORIES FROM OUR PARTNERS